Location: Atlantic Beach
(40.5890°N, 73.7290°W)
Time: 08:09:03
(UTC+00:00)

Envisat - Pass Details

Date: 24 January 2021
Orbit: 764 x 766 km, 98.1° (Epoch: 24 February)

Event Time Altitude Azimuth Distance (km) Brightness Sun altitude
Rises 23:07:27 0° 210° (SSW) 3,219 7.0 -12.3°
Reaches altitude 10° 23:10:39 10° 232° (SW) 2,299 6.6 -12.8°
Maximum altitude 23:13:42 16° 269° (W) 1,924 6.2 -13.4°
Drops below altitude 10° 23:16:46 10° 306° (NW) 2,309 6.1 -14.0°
Sets 23:20:00 0° 328° (NNW) 3,240 6.5 -14.6°
